Time,TemperatureF,DewpointF,PressureIn,WindDirection,WindDirectionDegrees,WindSpeedMPH,WindSpeedGustMPH,Humidity,HourlyPrecipIn,Conditions,Clouds,dailyrainin,SoftwareType,DateUTC
2013-04-12 00:02:00,58.5,34.2,29.93,SSE,152,0.0,8.0,40,0.00,,,0.00,meteohub,2013-04-12 07:02:00,
2013-04-12 00:22:00,58.6,34.3,29.93,SE,127,2.0,6.0,40,0.00,,,0.00,meteohub,2013-04-12 07:22:00,
2013-04-12 00:42:00,58.5,34.2,29.93,SE,135,8.0,10.0,40,0.00,,,0.00,meteohub,2013-04-12 07:42:00,
2013-04-12 01:02:00,58.5,34.2,29.93,SE,132,4.0,8.0,40,0.00,,,0.00,meteohub,2013-04-12 08:02:00,
2013-04-12 01:22:00,58.3,34.0,29.93,SSE,151,6.0,11.0,40,0.00,,,0.00,meteohub,2013-04-12 08:22:00,
2013-04-12 01:42:00,58.3,33.4,29.93,SE,124,3.0,11.0,39,0.00,,,0.00,meteohub,2013-04-12 08:42:00,
2013-04-12 02:02:00,58.3,33.4,29.90,SSE,165,4.0,11.0,39,0.00,,,0.00,meteohub,2013-04-12 09:02:00,
2013-04-12 02:22:00,58.3,33.4,29.90,SE,138,7.0,8.0,39,0.00,,,0.00,meteohub,2013-04-12 09:22:00,
2013-04-12 02:42:00,58.3,33.4,29.90,South,180,6.0,10.0,39,0.00,,,0.00,meteohub,2013-04-12 09:42:00,
2013-04-12 03:02:00,58.1,34.0,29.90,South,178,4.0,11.0,40,0.00,,,0.00,meteohub,2013-04-12 10:02:00,
2013-04-12 03:22:00,58.1,34.0,29.90,South,181,5.0,11.0,40,0.00,,,0.00,meteohub,2013-04-12 10:22:00,
2013-04-12 03:42:00,58.1,34.0,29.93,SSE,149,9.0,11.0,40,0.00,,,0.00,meteohub,2013-04-12 10:42:00,
2013-04-12 04:02:00,58.1,34.0,29.93,SE,146,6.0,8.0,40,0.00,,,0.00,meteohub,2013-04-12 11:02:00,
2013-04-12 04:22:00,58.1,33.3,29.90,ESE,120,4.0,9.0,39,0.00,,,0.00,meteohub,2013-04-12 11:22:00,
2013-04-12 04:42:00,58.1,33.3,29.90,SE,133,6.0,9.0,39,0.00,,,0.00,meteohub,2013-04-12 11:42:00,
2013-04-12 05:02:00,58.1,33.3,29.90,SSE,162,8.0,8.0,39,0.00,,,0.00,meteohub,2013-04-12 12:02:00,
2013-04-12 05:22:00,58.3,33.4,29.90,ESE,109,0.0,9.0,39,0.00,,,0.00,meteohub,2013-04-12 12:22:00,
2013-04-12 05:42:00,58.3,33.4,29.90,ESE,114,3.0,7.0,39,0.00,,,0.00,meteohub,2013-04-12 12:42:00,
2013-04-12 06:02:00,58.1,33.3,29.90,SE,145,5.0,6.0,39,0.00,,,0.00,meteohub,2013-04-12 13:02:00,
2013-04-12 06:22:00,57.9,33.1,29.93,South,176,3.0,6.0,39,0.00,,,0.00,meteohub,2013-04-12 13:22:00,
2013-04-12 06:42:00,57.9,33.1,29.93,SSE,151,0.0,5.0,39,0.00,,,0.00,meteohub,2013-04-12 13:42:00,
2013-04-12 07:02:00,57.9,33.1,29.93,SSE,163,0.0,3.0,39,0.00,,,0.00,meteohub,2013-04-12 14:02:00,
2013-04-12 07:22:00,57.9,32.5,29.93,WSW,247,0.0,3.0,38,0.00,,,0.00,meteohub,2013-04-12 14:22:00,
2013-04-12 07:42:00,58.5,32.9,29.93,South,178,0.0,6.0,38,0.00,,,0.00,meteohub,2013-04-12 14:42:00,
2013-04-12 08:02:00,59.0,33.4,29.93,SSE,147,0.0,0.0,38,0.00,,,0.00,meteohub,2013-04-12 15:02:00,
2013-04-12 08:22:00,59.9,33.6,29.93,SSE,154,3.0,4.0,37,0.00,,,0.00,meteohub,2013-04-12 15:22:00,
2013-04-12 08:42:00,59.9,33.6,29.93,South,180,0.0,6.0,37,0.00,,,0.00,meteohub,2013-04-12 15:42:00,
2013-04-12 09:02:00,60.3,33.3,29.96,West,276,2.0,4.0,36,0.00,,,0.00,meteohub,2013-04-12 16:02:00,
2013-04-12 09:22:00,60.6,33.4,29.96,South,177,3.0,5.0,36,0.00,,,0.00,meteohub,2013-04-12 16:22:00,
2013-04-12 09:42:00,61.5,33.6,29.96,SSW,199,5.0,6.0,35,0.00,,,0.00,meteohub,2013-04-12 16:42:00,
2013-04-12 10:02:00,61.9,34.0,29.96,SW,231,4.0,6.0,35,0.00,,,0.00,meteohub,2013-04-12 17:02:00,
2013-04-12 10:22:00,62.4,34.3,29.96,SW,234,6.0,8.0,35,0.00,,,0.00,meteohub,2013-04-12 17:22:00,
2013-04-12 10:42:00,63.0,34.2,29.96,WSW,251,4.0,8.0,34,0.00,,,0.00,meteohub,2013-04-12 17:42:00,
2013-04-12 11:02:00,63.5,34.7,29.96,West,266,5.0,9.0,34,0.00,,,0.00,meteohub,2013-04-12 18:02:00,
2013-04-12 11:22:00,63.5,34.7,29.96,WSW,238,10.0,10.0,34,0.00,,,0.00,meteohub,2013-04-12 18:22:00,
2013-04-12 12:42:00,65.3,36.1,29.96,WSW,246,11.0,11.0,34,0.00,,,0.00,meteohub,2013-04-12 19:42:00,
2013-04-12 13:02:00,63.9,34.9,29.96,WSW,237,11.0,12.0,34,0.00,,,0.00,meteohub,2013-04-12 20:02:00,
2013-04-12 13:22:00,63.7,34.7,29.93,WSW,242,11.0,14.0,34,0.00,,,0.00,meteohub,2013-04-12 20:22:00,
2013-04-12 13:42:00,65.1,36.1,29.93,WSW,246,9.0,13.0,34,0.00,,,0.00,meteohub,2013-04-12 20:42:00,
2013-04-12 14:02:00,66.0,36.9,29.93,SW,220,9.0,13.0,34,0.00,,,0.00,meteohub,2013-04-12 21:02:00,
2013-04-12 14:22:00,64.8,35.8,29.93,WSW,258,8.0,15.0,34,0.00,,,0.00,meteohub,2013-04-12 21:22:00,
2013-04-12 14:42:00,64.6,35.6,29.93,West,261,6.0,15.0,34,0.00,,,0.00,meteohub,2013-04-12 21:42:00,
2013-04-12 15:02:00,65.8,36.7,29.93,SW,227,6.0,13.0,34,0.00,,,0.00,meteohub,2013-04-12 22:02:00,
2013-04-12 15:22:00,65.5,36.3,29.93,SW,229,8.0,15.0,34,0.00,,,0.00,meteohub,2013-04-12 22:22:00,
2013-04-12 15:42:00,65.5,36.3,29.90,SW,233,13.0,15.0,34,0.00,,,0.00,meteohub,2013-04-12 22:42:00,
2013-04-12 16:02:00,65.7,36.5,29.90,SW,235,10.0,13.0,34,0.00,,,0.00,meteohub,2013-04-12 23:02:00,
2013-04-12 16:22:00,64.4,35.4,29.90,WSW,253,8.0,15.0,34,0.00,,,0.00,meteohub,2013-04-12 23:22:00,
2013-04-12 16:42:00,64.8,35.8,29.90,West,270,9.0,15.0,34,0.00,,,0.00,meteohub,2013-04-12 23:42:00,
2013-04-12 17:02:00,65.1,36.1,29.90,SW,221,5.0,15.0,34,0.00,,,0.00,meteohub,2013-04-13 00:02:00,
2013-04-12 17:22:00,64.2,36.0,29.90,WNW,282,8.0,17.0,35,0.00,,,0.00,meteohub,2013-04-13 00:22:00,
2013-04-12 17:42:00,63.7,35.6,29.90,West,274,9.0,15.0,35,0.00,,,0.00,meteohub,2013-04-13 00:42:00,
2013-04-12 18:02:00,62.8,35.4,29.90,West,272,11.0,14.0,36,0.00,,,0.00,meteohub,2013-04-13 01:02:00,
2013-04-12 18:22:00,61.9,36.0,29.87,WSW,241,8.0,13.0,38,0.00,,,0.00,meteohub,2013-04-13 01:22:00,
2013-04-12 18:42:00,60.6,36.1,29.90,WNW,288,8.0,15.0,40,0.00,,,0.00,meteohub,2013-04-13 01:42:00,
2013-04-12 19:02:00,59.9,37.4,29.90,West,260,8.0,11.0,43,0.00,,,0.00,meteohub,2013-04-13 02:02:00,
2013-04-12 19:22:00,58.8,38.1,29.90,West,265,5.0,11.0,46,0.00,,,0.00,meteohub,2013-04-13 02:22:00,
2013-04-12 19:42:00,57.9,38.3,29.93,WSW,256,5.0,11.0,48,0.00,,,0.00,meteohub,2013-04-13 02:42:00,
2013-04-12 20:02:00,57.6,39.0,29.93,West,267,5.0,11.0,50,0.00,,,0.00,meteohub,2013-04-13 03:02:00,
2013-04-12 20:22:00,57.2,39.2,29.93,West,264,7.0,10.0,51,0.00,,,0.00,meteohub,2013-04-13 03:22:00,
2013-04-12 20:42:00,56.8,39.4,29.93,West,278,5.0,8.0,52,0.00,,,0.00,meteohub,2013-04-13 03:42:00,
2013-04-12 21:02:00,56.7,39.7,29.96,West,269,6.0,6.0,53,0.00,,,0.00,meteohub,2013-04-13 04:02:00,
2013-04-12 21:22:00,56.7,40.3,29.96,West,261,5.0,8.0,54,0.00,,,0.00,meteohub,2013-04-13 04:22:00,
2013-04-12 21:42:00,56.5,40.1,29.96,WSW,240,0.0,7.0,54,0.00,,,0.00,meteohub,2013-04-13 04:42:00,
2013-04-12 22:02:00,56.3,40.3,29.96,SW,231,4.0,5.0,55,0.00,,,0.00,meteohub,2013-04-13 05:02:00,
2013-04-12 22:22:00,56.1,40.6,29.99,SW,223,5.0,6.0,56,0.00,,,0.00,meteohub,2013-04-13 05:22:00,
2013-04-12 22:42:00,55.8,40.3,29.99,SW,231,4.0,5.0,56,0.00,,,0.00,meteohub,2013-04-13 05:42:00,
2013-04-12 23:02:00,55.8,41.2,29.99,SW,221,4.0,5.0,58,0.00,,,0.00,meteohub,2013-04-13 06:02:00,
2013-04-12 23:22:00,56.1,42.8,29.96,SSW,203,3.0,6.0,61,0.00,,,0.00,meteohub,2013-04-13 06:22:00,
2013-04-12 23:42:00,56.1,40.6,29.99,SSW,205,3.0,7.0,56,0.00,,,0.00,meteohub,2013-04-13 06:42:00,